Time,TemperatureF,DewpointF,PressureIn,WindDirection,WindDirectionDegrees,WindSpeedMPH,WindSpeedGustMPH,Humidity,HourlyPrecipIn,Conditions,Clouds,dailyrainin,SoftwareType,DateUTC
2013-04-30 00:09:00,64.0,56.3,29.44,SE,135,2.7,-999.0,76,-99.99,,,0.00,Acu-Link.com,2013-04-30 05:09:00,
2013-04-30 00:25:00,64.2,56.5,29.41,ESE,112,5.8,-999.0,76,-99.99,,,0.00,Acu-Link.com,2013-04-30 05:25:00,
2013-04-30 00:40:00,63.9,56.2,29.42,SSE,157,4.2,-999.0,76,-99.99,,,0.00,Acu-Link.com,2013-04-30 05:40:00,
2013-04-30 00:55:00,63.5,55.8,29.40,SE,135,4.7,-999.0,76,-99.99,,,0.00,Acu-Link.com,2013-04-30 05:55:00,
2013-04-30 01:10:00,63.5,55.8,29.40,SSE,157,1.7,-999.0,76,-99.99,,,0.00,Acu-Link.com,2013-04-30 06:10:00,
2013-04-30 01:26:00,63.3,56.0,29.40,SE,135,1.7,-999.0,77,-99.99,,,0.00,Acu-Link.com,2013-04-30 06:26:00,
2013-04-30 01:41:00,62.8,55.5,29.40,ESE,112,2.2,-999.0,77,-99.99,,,0.00,Acu-Link.com,2013-04-30 06:41:00,
2013-04-30 01:56:00,62.4,55.1,29.39,SSE,157,2.2,-999.0,77,-99.99,,,0.00,Acu-Link.com,2013-04-30 06:56:00,
2013-04-30 02:11:00,62.1,55.2,29.38,ESE,112,4.7,-999.0,78,-99.99,,,0.00,Acu-Link.com,2013-04-30 07:11:00,
2013-04-30 02:27:00,61.9,55.0,29.36,ESE,112,2.7,-999.0,78,-99.99,,,0.00,Acu-Link.com,2013-04-30 07:27:00,
2013-04-30 02:42:00,61.9,55.0,29.36,SSE,157,2.2,-999.0,78,-99.99,,,0.00,Acu-Link.com,2013-04-30 07:42:00,
2013-04-30 02:57:00,61.9,55.0,29.35,SSE,157,3.7,-999.0,78,-99.99,,,0.00,Acu-Link.com,2013-04-30 07:57:00,
2013-04-30 03:12:00,61.9,55.0,29.35,ESE,112,2.2,-999.0,78,-99.99,,,0.00,Acu-Link.com,2013-04-30 08:12:00,
2013-04-30 03:27:00,61.9,55.0,29.36,SE,135,3.2,-999.0,78,-99.99,,,0.00,Acu-Link.com,2013-04-30 08:27:00,
2013-04-30 03:42:00,62.1,54.8,29.34,SE,135,4.7,-999.0,77,-99.99,,,0.00,Acu-Link.com,2013-04-30 08:42:00,
2013-04-30 03:57:00,62.2,54.9,29.34,ESE,112,2.7,-999.0,77,-99.99,,,0.00,Acu-Link.com,2013-04-30 08:57:00,
2013-04-30 04:13:00,63.0,55.7,29.34,SE,135,4.7,-999.0,77,-99.99,,,0.00,Acu-Link.com,2013-04-30 09:13:00,
2013-04-30 04:28:00,63.0,55.3,29.31,South,180,4.2,-999.0,76,-99.99,,,0.00,Acu-Link.com,2013-04-30 09:28:00,
2013-04-30 04:43:00,63.0,55.7,29.31,East,90,0.0,-999.0,77,-99.99,,,0.00,Acu-Link.com,2013-04-30 09:43:00,
2013-04-30 04:58:00,62.8,55.5,29.31,ESE,112,5.8,-999.0,77,-99.99,,,0.00,Acu-Link.com,2013-04-30 09:58:00,
2013-04-30 05:13:00,62.6,55.6,29.29,South,180,3.2,-999.0,78,-99.99,,,0.00,Acu-Link.com,2013-04-30 10:13:00,
2013-04-30 05:29:00,62.6,55.6,29.29,South,180,4.2,-999.0,78,-99.99,,,0.00,Acu-Link.com,2013-04-30 10:29:00,
2013-04-30 05:44:00,62.4,55.8,29.29,SSW,202,4.2,-999.0,79,-99.99,,,0.00,Acu-Link.com,2013-04-30 10:44:00,
2013-04-30 05:59:00,62.4,56.1,29.28,SE,135,4.2,-999.0,80,-99.99,,,0.00,Acu-Link.com,2013-04-30 10:59:00,
2013-04-30 06:14:00,62.4,56.1,29.28,SSE,157,3.7,-999.0,80,-99.99,,,0.00,Acu-Link.com,2013-04-30 11:14:00,
2013-04-30 06:29:00,63.0,56.7,29.29,SE,135,4.2,-999.0,80,-99.99,,,0.00,Acu-Link.com,2013-04-30 11:29:00,
2013-04-30 06:44:00,63.5,57.2,29.29,SSE,157,3.7,-999.0,80,-99.99,,,0.00,Acu-Link.com,2013-04-30 11:44:00,
2013-04-30 06:59:00,64.6,57.6,29.30,SSW,202,5.8,-999.0,78,-99.99,,,0.00,Acu-Link.com,2013-04-30 11:59:00,
2013-04-30 07:14:00,65.8,58.4,29.29,SE,135,6.3,-999.0,77,-99.99,,,0.00,Acu-Link.com,2013-04-30 12:14:00,
2013-04-30 07:29:00,68.2,59.2,29.30,West,270,5.3,-999.0,73,-99.99,,,0.00,Acu-Link.com,2013-04-30 12:29:00,
2013-04-30 07:45:00,68.2,58.8,29.30,SSW,202,6.3,-999.0,72,-99.99,,,0.00,Acu-Link.com,2013-04-30 12:45:00,
2013-04-30 08:00:00,68.4,59.0,29.32,West,270,15.5,-999.0,72,-99.99,,,0.00,Acu-Link.com,2013-04-30 13:00:00,
2013-04-30 08:15:00,68.5,58.7,29.33,West,270,6.3,-999.0,71,-99.99,,,0.00,Acu-Link.com,2013-04-30 13:15:00,
2013-04-30 08:31:00,69.3,58.3,29.33,West,270,6.3,-999.0,68,-99.99,,,0.00,Acu-Link.com,2013-04-30 13:31:00,
2013-04-30 08:46:00,69.3,56.2,29.35,West,270,6.3,-999.0,63,-99.99,,,0.00,Acu-Link.com,2013-04-30 13:46:00,
2013-04-30 09:01:00,69.4,53.5,29.34,West,270,3.2,-999.0,57,-99.99,,,0.00,Acu-Link.com,2013-04-30 14:01:00,
2013-04-30 09:16:00,68.9,53.0,29.36,West,270,8.3,-999.0,57,-99.99,,,0.00,Acu-Link.com,2013-04-30 14:16:00,
2013-04-30 09:31:00,68.4,53.0,29.37,West,270,7.3,-999.0,58,-99.99,,,0.00,Acu-Link.com,2013-04-30 14:31:00,
2013-04-30 09:47:00,67.5,52.2,29.41,West,270,4.7,-999.0,58,-99.99,,,0.00,Acu-Link.com,2013-04-30 14:47:00,
2013-04-30 10:02:00,66.0,51.7,29.40,WNW,292,7.3,-999.0,60,-99.99,,,0.00,Acu-Link.com,2013-04-30 15:02:00,
2013-04-30 10:17:00,66.0,51.3,29.43,West,270,4.2,-999.0,59,-99.99,,,0.00,Acu-Link.com,2013-04-30 15:17:00,
2013-04-30 10:32:00,67.6,51.3,29.43,NNW,337,5.8,-999.0,56,-99.99,,,0.00,Acu-Link.com,2013-04-30 15:32:00,
2013-04-30 10:47:00,65.3,50.1,29.45,West,270,5.3,-999.0,58,-99.99,,,0.00,Acu-Link.com,2013-04-30 15:47:00,
2013-04-30 11:02:00,64.9,49.8,29.46,West,270,5.3,-999.0,58,-99.99,,,0.00,Acu-Link.com,2013-04-30 16:02:00,
2013-04-30 11:17:00,64.2,49.6,29.48,West,270,7.8,-999.0,59,-99.99,,,0.00,Acu-Link.com,2013-04-30 16:17:00,
2013-04-30 11:32:00,64.8,49.7,29.50,NW,315,10.9,-999.0,58,-99.99,,,0.00,Acu-Link.com,2013-04-30 16:32:00,
2013-04-30 11:47:00,64.9,49.3,29.50,NNW,337,7.8,-999.0,57,-99.99,,,0.00,Acu-Link.com,2013-04-30 16:47:00,
2013-04-30 12:02:00,67.3,49.6,29.51,NW,315,6.8,-999.0,53,-99.99,,,0.00,Acu-Link.com,2013-04-30 17:02:00,
2013-04-30 12:17:00,64.6,48.1,29.54,North,0,4.7,-999.0,55,-99.99,,,0.00,Acu-Link.com,2013-04-30 17:17:00,
2013-04-30 12:32:00,64.8,48.2,29.57,NNW,337,4.2,-999.0,55,-99.99,,,0.00,Acu-Link.com,2013-04-30 17:32:00,
2013-04-30 12:48:00,68.2,49.9,29.55,NW,315,8.3,-999.0,52,-99.99,,,0.00,Acu-Link.com,2013-04-30 17:48:00,
2013-04-30 13:03:00,64.9,47.9,29.56,West,270,5.8,-999.0,54,-99.99,,,0.00,Acu-Link.com,2013-04-30 18:03:00,
2013-04-30 13:18:00,63.5,48.0,29.55,NW,315,7.3,-999.0,57,-99.99,,,0.00,Acu-Link.com,2013-04-30 18:18:00,
2013-04-30 13:33:00,64.4,49.3,29.53,SSW,202,2.7,-999.0,58,-99.99,,,0.00,Acu-Link.com,2013-04-30 18:33:00,
2013-04-30 13:48:00,65.3,48.7,29.54,West,270,6.8,-999.0,55,-99.99,,,0.00,Acu-Link.com,2013-04-30 18:48:00,
2013-04-30 14:03:00,65.7,48.6,29.58,West,270,5.8,-999.0,54,-99.99,,,0.00,Acu-Link.com,2013-04-30 19:03:00,
2013-04-30 14:18:00,66.6,47.9,29.58,West,270,4.7,-999.0,51,-99.99,,,0.00,Acu-Link.com,2013-04-30 19:18:00,
2013-04-30 14:34:00,68.0,47.0,29.58,West,270,5.8,-999.0,47,-99.99,,,0.00,Acu-Link.com,2013-04-30 19:34:00,
2013-04-30 14:49:00,68.2,46.0,29.57,West,270,6.8,-999.0,45,-99.99,,,0.00,Acu-Link.com,2013-04-30 19:49:00,
2013-04-30 15:04:00,67.6,39.7,29.60,West,270,8.3,-999.0,36,-99.99,,,0.00,Acu-Link.com,2013-04-30 20:04:00,
2013-04-30 15:19:00,68.0,40.0,29.61,West,270,4.2,-999.0,36,-99.99,,,0.00,Acu-Link.com,2013-04-30 20:19:00,
2013-04-30 15:34:00,69.4,39.0,29.63,WNW,292,7.3,-999.0,33,-99.99,,,0.00,Acu-Link.com,2013-04-30 20:34:00,
2013-04-30 15:50:00,72.1,36.3,29.61,SW,225,13.0,-999.0,27,-99.99,,,0.00,Acu-Link.com,2013-04-30 20:50:00,
2013-04-30 16:05:00,69.1,35.5,29.61,West,270,7.8,-999.0,29,-99.99,,,0.00,Acu-Link.com,2013-04-30 21:05:00,
2013-04-30 16:20:00,67.3,35.6,29.63,WNW,292,5.8,-999.0,31,-99.99,,,0.00,Acu-Link.com,2013-04-30 21:20:00,
2013-04-30 16:35:00,67.6,36.7,29.66,West,270,6.3,-999.0,32,-99.99,,,0.00,Acu-Link.com,2013-04-30 21:35:00,
2013-04-30 16:50:00,68.9,37.8,29.67,West,270,6.8,-999.0,32,-99.99,,,0.00,Acu-Link.com,2013-04-30 21:50:00,
2013-04-30 17:05:00,68.7,36.8,29.67,WNW,292,2.2,-999.0,31,-99.99,,,0.00,Acu-Link.com,2013-04-30 22:05:00,
2013-04-30 17:21:00,68.2,36.4,29.71,WSW,247,4.7,-999.0,31,-99.99,,,0.00,Acu-Link.com,2013-04-30 22:21:00,
2013-04-30 17:36:00,68.2,32.0,29.70,West,270,7.3,-999.0,26,-99.99,,,0.00,Acu-Link.com,2013-04-30 22:36:00,
2013-04-30 17:51:00,67.1,32.0,29.71,West,270,5.8,-999.0,27,-99.99,,,0.00,Acu-Link.com,2013-04-30 22:51:00,
2013-04-30 18:06:00,68.5,33.2,29.71,West,270,7.8,-999.0,27,-99.99,,,0.00,Acu-Link.com,2013-04-30 23:06:00,
2013-04-30 18:21:00,66.6,32.5,29.71,West,270,6.8,-999.0,28,-99.99,,,0.00,Acu-Link.com,2013-04-30 23:21:00,
2013-04-30 18:36:00,65.5,32.4,29.74,WNW,292,4.7,-999.0,29,-99.99,,,0.00,Acu-Link.com,2013-04-30 23:36:00,
2013-04-30 18:51:00,64.6,33.3,29.72,WSW,247,4.2,-999.0,31,-99.99,,,0.00,Acu-Link.com,2013-04-30 23:51:00,
2013-04-30 19:07:00,63.9,33.5,29.74,West,270,4.2,-999.0,32,-99.99,,,0.00,Acu-Link.com,2013-05-01 00:07:00,
2013-04-30 19:22:00,62.4,35.1,29.74,NNW,337,4.7,-999.0,36,-99.99,,,0.00,Acu-Link.com,2013-05-01 00:22:00,
2013-04-30 19:37:00,62.1,36.2,29.75,NNW,337,1.7,-999.0,38,-99.99,,,0.00,Acu-Link.com,2013-05-01 00:37:00,
2013-04-30 19:52:00,60.8,36.3,29.73,North,0,3.7,-999.0,40,-99.99,,,0.00,Acu-Link.com,2013-05-01 00:52:00,
2013-04-30 20:07:00,59.4,36.3,29.77,NNW,337,2.7,-999.0,42,-99.99,,,0.00,Acu-Link.com,2013-05-01 01:07:00,
2013-04-30 20:22:00,58.8,36.4,29.76,NNW,337,0.0,-999.0,43,-99.99,,,0.00,Acu-Link.com,2013-05-01 01:22:00,
2013-04-30 20:38:00,57.7,37.1,29.75,WNW,292,2.7,-999.0,46,-99.99,,,0.00,Acu-Link.com,2013-05-01 01:38:00,
2013-04-30 20:53:00,56.5,37.0,29.78,NNW,337,1.1,-999.0,48,-99.99,,,0.00,Acu-Link.com,2013-05-01 01:53:00,
2013-04-30 21:08:00,55.8,37.4,29.77,NNW,337,0.0,-999.0,50,-99.99,,,0.00,Acu-Link.com,2013-05-01 02:08:00,
2013-04-30 21:24:00,55.8,37.9,29.77,NNW,337,0.0,-999.0,51,-99.99,,,0.00,Acu-Link.com,2013-05-01 02:24:00,
2013-04-30 21:39:00,55.6,38.3,29.77,NNW,337,1.7,-999.0,52,-99.99,,,0.00,Acu-Link.com,2013-05-01 02:39:00,
2013-04-30 21:54:00,55.6,38.7,29.79,NNW,337,0.0,-999.0,53,-99.99,,,0.00,Acu-Link.com,2013-05-01 02:54:00,
2013-04-30 22:10:00,55.4,39.0,29.80,West,270,2.2,-999.0,54,-99.99,,,0.00,Acu-Link.com,2013-05-01 03:10:00,
2013-04-30 22:25:00,55.4,39.5,29.82,NNW,337,1.7,-999.0,55,-99.99,,,0.00,Acu-Link.com,2013-05-01 03:25:00,
2013-04-30 22:40:00,55.6,39.2,29.84,SW,225,4.2,-999.0,54,-99.99,,,0.00,Acu-Link.com,2013-05-01 03:40:00,
2013-04-30 22:55:00,55.6,39.2,29.84,West,270,3.7,-999.0,54,-99.99,,,0.00,Acu-Link.com,2013-05-01 03:55:00,
2013-04-30 23:10:00,55.4,38.1,29.83,North,0,4.2,-999.0,52,-99.99,,,0.00,Acu-Link.com,2013-05-01 04:10:00,
2013-04-30 23:25:00,55.2,37.9,29.86,NNW,337,4.7,-999.0,52,-99.99,,,0.00,Acu-Link.com,2013-05-01 04:25:00,
2013-04-30 23:41:00,54.7,37.9,29.87,NNW,337,3.7,-999.0,53,-99.99,,,0.00,Acu-Link.com,2013-05-01 04:41:00,
2013-04-30 23:56:00,54.1,37.8,29.86,WNW,292,6.3,-999.0,54,-99.99,,,0.00,Acu-Link.com,2013-05-01 04:56:00,